DateTimeUTC,F1_A11,F1_S11,BsB_S11,BsG_S11,BsR_S11,BbsB_S11,BbsG_S11,BbsR_S11,BaB_A11,BaG_A11,BaR_A11,Tu_S11,T_S11,Uu_S11,U_S11,P_S11,T1_A11
2021-08-21T21:00:00Z,00000200,20000000,,,,,,,-000.33,0000.02,0000.27,19.3,26.0,10.5,07.0,0678.1,31.0
2021-08-21T21:01:00Z,00000200,20000000,,,,,,,0000.15,-000.36,0000.27,19.3,26.0,10.5,07.0,0678.1,31.0
2021-08-21T21:02:00Z,00000200,20000000,,,,,,,-000.09,0000.47,-000.33,19.3,26.0,10.5,07.0,0678.1,31.0
2021-08-21T21:03:00Z,00000200,60000000,,,,,,,0000.54,0000.03,0000.32,19.3,26.0,10.5,07.0,0678.1,31.0
2021-08-21T21:04:00Z,00000200,40000000,0001.70,0001.06,0000.89,-000.18,0000.14,0000.21,0000.07,0000.16,0000.11,19.4,25.9,10.6,07.2,0679.0,31.0
2021-08-21T21:05:00Z,00000200,00000000,0001.23,0001.13,0000.92,0000.35,0000.13,0000.14,0000.43,0000.49,0000.34,19.5,25.8,10.5,07.1,0679.1,31.0
2021-08-21T21:06:00Z,00000200,00000000,0001.21,0001.16,0001.04,0000.05,0000.01,0000.22,0000.35,0000.24,0000.37,19.5,25.8,10.5,07.2,0679.1,31.0
2021-08-21T21:07:00Z,00000200,00000000,0001.56,0001.38,0001.01,-000.13,0000.24,0000.06,0000.46,0000.68,0000.10,19.5,25.8,10.6,07.2,0679.1,31.0
2021-08-21T21:08:00Z,00000200,00000000,0002.19,0001.07,0000.66,0000.73,0000.32,0000.03,0000.44,0000.10,0000.47,19.5,25.8,10.6,07.2,0679.1,31.0
2021-08-21T21:09:00Z,00000200,00000000,0001.28,0001.17,0000.98,0000.49,0000.10,0000.24,0000.41,0000.62,0000.37,19.5,25.8,10.7,07.3,0679.1,31.0
2021-08-21T21:10:00Z,00000200,00000000,0001.47,0000.99,0000.81,0000.12,0000.02,0000.12,0000.34,0000.17,0000.02,19.5,25.8,10.6,07.3,0679.1,31.0
2021-08-21T21:11:00Z,00000200,00000000,0001.89,0001.00,0000.89,0000.34,0000.08,0000.06,0000.20,0000.21,0000.43,19.5,25.8,10.8,07.4,0679.1,31.0
2021-08-21T21:12:00Z,00000200,00000000,0002.32,0001.40,0000.98,0000.05,-000.12,0000.30,0000.95,0000.54,0000.74,19.5,25.8,10.9,07.4,0679.1,31.0
2021-08-21T21:13:00Z,00000200,00000000,0001.46,0001.15,0001.20,0000.53,0000.05,0000.18,0000.31,0000.39,-000.13,19.5,25.7,10.7,07.3,0679.1,31.0
2021-08-21T21:14:00Z,00000200,00000000,0002.00,0001.28,0000.65,0000.30,0000.23,-000.17,0000.16,0000.40,0000.49,19.5,25.7,10.8,07.3,0679.1,31.0
2021-08-21T21:15:00Z,00000200,00000000,0001.96,0001.52,0001.07,0000.39,0000.14,0000.62,0000.56,0000.32,0000.33,19.5,25.7,10.8,07.4,0679.1,31.0
2021-08-21T21:16:00Z,00000200,00000000,0001.98,0001.62,0001.12,0000.09,-000.05,-000.05,0000.21,0000.27,0000.03,19.5,25.8,10.8,07.4,0679.1,31.0
2021-08-21T21:17:00Z,00000200,00000000,0001.58,0000.88,0000.97,0000.46,0000.01,-000.02,0000.34,0000.41,0000.36,19.5,25.7,10.7,07.3,0679.1,31.0
2021-08-21T21:18:00Z,00000200,00000000,0001.91,0001.42,0000.71,0000.25,0000.21,0000.55,0000.30,0000.15,0000.17,19.5,25.7,10.8,07.3,0679.1,31.0
2021-08-21T21:19:00Z,00000200,00000000,0001.53,0001.17,0001.05,0000.36,0000.20,0000.22,0000.44,0000.42,0000.43,19.5,25.7,10.8,07.4,0679.1,31.0
2021-08-21T21:20:00Z,00000200,00000000,0001.95,0001.31,0001.02,0000.32,0000.07,0000.38,0000.47,0000.60,0000.27,19.5,25.7,10.8,07.4,0679.1,31.0
2021-08-21T21:21:00Z,00000200,00000000,0002.07,0001.38,0001.14,0000.13,0000.22,0000.22,0000.55,0000.56,0000.35,19.5,25.7,10.6,07.3,0679.1,31.0
2021-08-21T21:22:00Z,00000200,00000000,0001.75,0001.29,0000.95,0000.13,0000.08,-000.07,0000.28,0000.15,0000.25,19.5,25.7,10.7,07.3,0679.1,31.0
2021-08-21T21:23:00Z,00000200,00000000,0002.39,0001.51,0001.03,0000.10,0000.03,-000.10,0000.27,0000.32,0000.14,19.5,25.7,10.6,07.3,0679.1,31.0
2021-08-21T21:24:00Z,00000200,00000000,0002.01,0001.35,0000.85,0000.48,0000.28,0000.24,0000.44,0000.14,0000.57,19.5,25.7,10.7,07.3,0679.1,31.0
2021-08-21T21:25:00Z,00000200,00000000,0002.10,0001.35,0000.92,0000.39,-000.10,0000.54,0000.37,0000.66,0000.08,19.4,25.7,10.6,07.3,0679.1,31.0
2021-08-21T21:26:00Z,00000200,00000000,0002.38,0001.30,0000.95,-000.09,0000.12,0000.27,0000.50,0000.49,0000.65,19.5,25.7,10.6,07.3,0679.1,31.0
2021-08-21T21:27:00Z,00000200,00000000,0002.51,0001.21,0001.03,0000.63,0000.12,0000.40,0000.65,0000.71,0000.07,19.5,25.7,10.8,07.4,0679.1,31.0
2021-08-21T21:28:00Z,00000200,00000000,0001.58,0001.01,0001.01,0000.85,-000.22,0000.29,0000.29,0000.44,0000.32,19.4,25.7,10.7,07.3,0679.1,31.0
2021-08-21T21:29:00Z,00000200,00000000,0002.20,0001.49,0000.92,0000.18,0000.05,0000.18,0000.20,-000.06,0000.24,19.4,25.7,10.8,07.4,0679.1,31.0
2021-08-21T21:30:00Z,00000200,00000000,0001.82,0001.00,0000.69,0000.45,0000.31,0000.43,0000.53,0000.34,0000.63,19.4,25.7,10.7,07.3,0679.1,31.0
2021-08-21T21:31:00Z,00000200,00000000,0002.67,0001.80,0000.86,-000.21,0000.20,0000.12,0000.49,0000.43,0000.12,19.4,25.7,10.7,07.3,0679.1,31.0
2021-08-21T21:32:00Z,00000200,00000000,0001.83,0001.23,0001.07,0000.35,0000.21,0000.29,0000.44,0000.72,0000.44,19.5,25.7,10.7,07.3,0679.1,31.0
2021-08-21T21:33:00Z,00000200,00000000,0002.29,0001.52,0001.25,0000.20,0000.26,0000.13,0000.88,0000.23,0000.53,19.4,25.7,10.8,07.4,0679.1,31.0
2021-08-21T21:34:00Z,00000200,00000000,0002.21,0001.72,0001.06,0000.91,-000.16,-000.08,0000.40,0000.49,0000.15,19.5,25.7,10.7,07.3,0679.1,31.0
2021-08-21T21:35:00Z,00000200,00000000,0002.40,0001.53,0001.58,0000.52,0000.37,0000.47,0000.34,0000.40,0000.35,19.5,25.7,10.7,07.3,0679.0,31.0
2021-08-21T21:36:00Z,00000200,00000000,0001.97,0001.60,0001.12,0000.46,0000.15,0000.64,0000.18,0000.45,0000.32,19.5,25.7,10.6,07.3,0679.1,31.0
2021-08-21T21:37:00Z,00000200,00000000,0002.45,0001.62,0001.43,0000.96,0000.39,0000.84,0000.67,0000.72,0000.26,19.4,25.7,10.7,07.4,0679.1,31.0
2021-08-21T21:38:00Z,00000200,00000000,0002.48,0001.99,0001.32,0000.74,0000.30,0000.33,0000.61,0000.38,0000.47,19.4,25.7,10.7,07.3,0679.1,31.0
2021-08-21T21:39:00Z,00000200,00000000,0002.13,0001.67,0001.09,0000.53,0000.08,0000.08,0000.39,0000.48,0000.43,19.4,25.7,10.6,07.3,0679.1,31.0
2021-08-21T21:40:00Z,00000200,00000000,0002.38,0001.81,0001.02,0000.11,0000.07,0000.15,0000.35,0000.44,0000.61,19.4,25.7,10.7,07.4,0679.1,31.0
2021-08-21T21:41:00Z,00000200,00000000,0002.21,0001.65,0001.40,0000.36,0000.12,0000.47,0000.52,0000.43,0000.26,19.4,25.7,10.6,07.3,0679.1,31.0
2021-08-21T21:42:00Z,00000200,00000000,0002.50,0001.70,0001.38,0000.41,-000.02,0000.05,0000.71,0000.30,0000.38,19.4,25.7,10.8,07.4,0679.1,31.0
2021-08-21T21:43:00Z,00000200,00000000,0002.52,0001.73,0001.12,0000.37,-000.06,0000.16,0000.79,0000.48,0000.31,19.4,25.7,10.8,07.4,0679.1,31.0
2021-08-21T21:44:00Z,00000200,00000000,0002.08,0001.58,0001.10,0000.96,0000.25,0000.15,0000.18,0000.64,0000.27,19.4,25.7,10.9,07.5,0679.1,31.0
2021-08-21T21:45:00Z,00000200,00000000,0002.06,0001.81,0001.27,0000.29,-000.02,0000.38,0000.72,0000.40,0000.50,19.4,25.7,10.9,07.5,0679.1,31.0
2021-08-21T21:46:00Z,00000200,00000000,0002.19,0001.41,0001.31,0000.74,0000.19,0000.68,0000.31,0000.60,0000.41,19.4,25.7,10.9,07.5,0679.2,31.0
2021-08-21T21:47:00Z,00000200,00000000,0002.75,0002.34,0001.32,0000.92,0000.06,0000.18,0000.77,0000.32,0000.13,19.4,25.7,10.8,07.4,0679.2,31.0
2021-08-21T21:48:00Z,00000200,00000000,0003.09,0002.04,0001.33,0000.36,0000.50,0000.48,0000.37,0000.77,0000.49,19.4,25.7,10.9,07.4,0679.1,31.0
2021-08-21T21:49:00Z,00000200,00000000,0003.05,0001.71,0001.31,0000.51,0000.20,0000.11,0000.85,0000.37,0000.58,19.4,25.7,10.7,07.3,0679.1,31.0
2021-08-21T21:50:00Z,00000200,00000000,0003.15,0001.83,0001.38,0000.60,0000.09,0000.20,-000.08,0000.40,-000.01,19.4,25.6,10.7,07.4,0679.1,31.0
2021-08-21T21:51:00Z,00000200,00000000,0002.97,0002.13,0001.28,0000.10,0000.13,-000.08,0000.81,0000.69,0000.74,19.4,25.6,10.8,07.4,0679.2,31.0
2021-08-21T21:52:00Z,00000200,00000000,0002.98,0002.00,0001.36,-000.08,0000.31,0000.29,0000.37,0000.02,0000.45,19.4,25.6,10.7,07.3,0679.1,31.0
2021-08-21T21:53:00Z,00000200,00000000,0002.83,0001.92,0001.62,0000.57,0000.24,0000.26,0000.97,0000.77,0000.47,19.4,25.6,10.8,07.4,0679.2,31.0
2021-08-21T21:54:00Z,00000200,00000000,0002.47,0001.77,0001.57,0000.43,0000.31,0000.24,0000.47,0000.82,0000.43,19.4,25.7,10.7,07.3,0679.2,31.0
2021-08-21T21:55:00Z,00000200,00000000,0003.70,0002.45,0001.74,0000.26,-000.09,0000.62,0001.12,0000.50,0000.45,19.4,25.7,10.8,07.4,0679.2,31.0
2021-08-21T21:56:00Z,00000200,00000000,0002.88,0002.54,0001.62,0001.27,-000.12,0000.53,0000.20,0000.76,0000.44,19.4,25.6,10.8,07.4,0679.1,31.0
2021-08-21T21:57:00Z,00000200,40000000,,,,,,,0000.27,-000.09,0000.21,19.4,25.7,11.1,07.6,0679.1,31.0
2021-08-21T21:58:00Z,00000200,60000000,,,,,,,-000.07,-000.01,-000.17,19.2,25.8,10.6,07.1,0678.2,31.0
2021-08-21T21:59:00Z,00000200,20000000,,,,,,,-000.20,0000.23,0000.18,19.2,25.9,10.5,07.0,0678.2,31.0
